Location: �chassi�res
(46.1844°N, 2.9346°E)
Time: 21:50:32
(UTC+00:00)

Daily predictions for brighter satellites

Satellite Brightness Start Highest point End
(mag) Time Altitude Azimuth Time Altitude Azimuth Time Altitude Azimuth
NOSS 3-2 (C) 4.3 17:59:04 10° NW 18:06:13 51° NE 18:14:19 10° ESE
Cosmos 1844 4.4 18:05:02 10° SSE 18:09:57 31° ESE 18:14:51 10° NE
ISS -3.2 18:07:07 10° W 18:10:26 56° NNW 18:13:46 10° ENE
USA 186 3.9 18:11:52 10° E 18:13:10 12° ENE 18:14:28 10° NE
Cosmos 1300 Rocket 3.8 18:15:01 10° SSE 18:19:13 46° E 18:23:29 10° NNE
Okean 1 Rocket 4.5 18:19:34 10° SE 18:22:40 19° E 18:25:47 10° NE
Sich 1 Rocket 3.6 18:19:01 10° S 18:23:31 83° E 18:28:07 10° N
NOSS 2-2 (E) 4.4 18:20:58 10° WSW 18:24:21 43° NW 18:28:16 10° NNE
CENTAUR R/B 3.3 18:17:29 10° NW 18:25:22 61° NE 18:34:02 10° SE
Cosmos 2298 Rocket 4.1 18:20:22 10° S 18:25:36 61° ESE 18:30:52 10° NNE
Cosmos 1833 Rocket 4.3 18:22:46 10° N 18:26:34 18° NE 18:30:12 11° E
Cosmos 1975 4.5 18:23:00 10° SSW 18:26:51 40° WNW 18:30:43 10° N
Iridium 4 Rocket 4.3 18:22:49 10° SSW 18:27:56 60° W 18:33:32 10° N
CSL-04 Debris 4.1 18:24:45 10° SSE 18:30:05 70° ENE 18:35:28 10° N
Helios 1A Rocket 4.3 18:28:01 10° S 18:31:56 43° W 18:35:55 10° NNW
CSL-04 Rocket 3.7 18:26:38 10° SSE 18:32:02 69° ENE 18:37:33 10° N
ATLAS 2AS CENTAUR R/B 3.6 18:26:49 10° S 18:33:37 33° ESE 18:40:27 10° NE
Okean 2 Rocket 3.0 18:29:17 10° S 18:33:44 68° E 18:38:12 10° NNE
NOSS 2-2 (D) 4.3 18:30:50 10° WSW 18:34:14 44° NW 18:38:04 10° NNE
YAOGAN 1 2.7 18:30:19 10° S 18:34:39 79° WSW 18:39:00 10° NNW
Cosmos 1025 Rocket 3.0 18:30:19 10° N 18:34:42 66° E 18:39:04 10° SSE
ATLAS 3B R/B 3.7 18:31:22 10° NNW 18:37:22 31° NNE 18:42:35 14° E
SWAS 4.5 18:36:08 10° NNW 18:40:25 62° ENE 18:44:38 10° SE
Abrixas rocket 1.8 18:37:35 10° WNW 18:40:26 78° NNE 18:42:11 21° E
Cosmos 1513 Rocket 4.4 18:35:02 10° S 18:41:16 81° E 18:47:26 10° N
CREW DRAGON DEMO-1 DEB 2.9 18:39:26 10° WNW 18:42:26 62° NNE 18:44:16 21° E
Cosmos 1536 Rocket 3.6 18:40:03 10° N 18:44:30 63° E 18:48:55 10° SSE
Cosmos 1125 Rocket 3.6 18:41:04 10° S 18:46:15 57° ESE 18:51:28 10° NNE
SJ-6B 3.8 18:48:31 20° ESE 18:50:01 26° ENE 18:53:13 10° N
CZ-4 R/B 2.9 18:48:19 10° S 18:52:18 41° W 18:56:17 10° NNW
Cosmos 2150 Rocket 4.1 18:47:46 10° SSW 18:53:10 87° WNW 18:58:40 10° NNE
SJ-11-01 4.3 18:48:35 10° SSE 18:53:17 86° WSW 18:58:01 10° NNW
CZ-2C R/B 3.5 18:49:00 10° S 18:54:21 73° WSW 19:00:02 10° NNW
Cosmos 1464 Rocket 4.0 18:48:29 10° S 18:54:37 85° W 19:00:52 10° N
USA 238 DEB 4.0 18:47:31 10° NW 18:54:45 78° SW 19:02:15 10° SSE
USA 238 4.0 18:47:37 10° NW 18:54:51 78° SW 19:02:22 10° SSE
Okean-O 4.4 18:52:08 10° SSW 18:56:12 35° W 19:00:17 10° NNW
Cosmos 1674 2.8 18:53:04 10° N 18:56:52 55° ENE 19:00:16 12° SSE
Cosmos 2285 Rocket 4.0 18:50:48 10° S 18:56:57 58° ESE 19:03:10 10° NNE
Cosmos 1092 Rocket 4.2 18:51:51 10° N 18:57:50 49° ENE 19:03:49 10° SSE
MOS 1 Rocket 3.0 18:59:06 10° NNE 19:03:30 81° ESE 19:07:46 10° S
FREGAT/IRIS 4.0 19:04:41 20° NE 19:04:41 20° NE 19:05:59 10° NNE
TSX-5 4.2 19:04:31 10° S 19:08:07 42° ESE 19:12:39 10° NE
ARGOS 3.1 19:04:34 10° SSE 19:09:56 89° W 19:15:22 10° NNW
CZ-2C R/B 2.9 19:08:21 10° NNE 19:13:47 50° E 19:19:12 10° S
Cosmos 1340 Rocket 4.0 19:15:11 25° ENE 19:15:11 25° ENE 19:17:29 10° NNE
Cosmos 1733 3.4 19:13:48 25° SSE 19:15:39 45° E 19:19:20 10° NNE
Cosmos 2151 Rocket 4.1 19:12:01 10° SSW 19:16:26 61° WNW 19:20:55 10° N
MOS 1 4.3 19:13:05 17° SE 19:17:23 60° ENE 19:23:00 10° N
Lacrosse 5 rocket 3.4 19:15:01 10° NW 19:18:26 21° N 19:20:43 15° NE
Cosmos 2082 Rocket 3.4 19:15:22 10° N 19:19:55 24° NE 19:21:17 22° ENE
Shenzhou-11 Module 4.2 19:20:28 10° SW 19:20:33 11° SW 19:20:33 11° SW
BREEZE-M DEB (TANK) 3.6 19:19:18 10° WNW 19:22:31 51° SSW 19:27:36 21° SE
BREEZE-M R/B 3.9 19:11:50 10° WSW 19:22:58 89° N 19:24:25 35° ENE
DMSP B5D2-2 4.2 19:18:27 10° NNE 19:23:37 51° E 19:28:44 10° S
Cosmos 494 Rocket 4.3 19:19:52 10° NNW 19:25:06 69° WSW 19:29:53 12° S
Meteor 1-15 Rocket 4.3 19:21:27 10° SSW 19:27:06 82° W 19:32:54 10° N
Cosmos 1805 3.1 19:23:38 10° S 19:27:32 89° W 19:31:29 10° N
OBJECT-B 2.2 19:28:48 27° NNE 19:28:48 27° NNE 19:30:44 10° N
Milstar 3 Cent rocket 4.2 19:28:02 10° SW 19:31:16 14° S 19:32:39 13° S
Ariane Rocket 2.9 19:28:06 19° SSE 19:31:48 88° ENE 19:36:55 10° NNW
SL-08 RB Rocket 3.8 19:27:52 13° S 19:31:53 74° WSW 19:36:26 10° NNW
H-2A R/B 3.2 19:28:40 10° SSW 19:33:23 42° W 19:38:15 10° NNW
USA 234 4.4 19:38:13 22° SSE 19:38:13 22° SSE 19:41:23 10° S
Cosmos 1269 Rocket 3.9 19:31:44 10° NNW 19:37:05 86° ENE 19:39:33 33° SSE
Cosmos 1626 2.0 19:38:27 10° N 19:42:02 77° NE 19:42:02 77° NE
Okean 1-7 Rocket 4.4 19:38:11 10° N 19:41:51 37° NE 19:41:51 37° NE
MetOp-A 4.0 19:40:20 27° SSE 19:43:20 88° ENE 19:48:43 10° NNW
USA 186 2.8 19:42:34 35° SW 19:43:27 45° W 19:46:38 10° NNW
Cosmos 1844 Rocket 3.9 19:41:01 10° SW 19:46:16 42° NW 19:51:35 10° NNE
COSMOS 2406 3.1 19:40:37 10° NNW 19:46:18 72° ENE 19:47:55 47° SE
ISS -2.3 19:44:38 10° WNW 19:47:41 31° N 19:47:46 31° N
Cosmos 2278 Rocket 2.6 19:44:48 10° S 19:51:32 41° ENE 19:55:40 10° NE
Lacrosse 4 Rocket 2.6 19:50:01 10° NNW 19:52:52 30° NNE 19:52:52 30° NNE
Meteor 1-22 Rocket 4.3 19:49:03 10° S 19:54:57 87° E 20:01:05 10° NNE
Meteor 2-5 Rocket 4.1 19:50:58 10° NNW 19:56:37 65° W 20:00:46 19° S
Exosat Rocket 4.4 19:53:06 10° SW 19:58:16 50° WNW 20:03:10 10° NNE
Cosmos 909 Rocket 4.4 19:52:30 10° NNW 19:58:47 45° NE 19:59:55 41° ENE
Meteor 1-24 Rocket 3.8 19:53:22 10° NNW 19:58:58 80° W 20:01:37 34° S
Okean 1 Rocket 4.1 19:55:54 10° SSW 20:00:12 46° WNW 20:04:33 10° N
NOSS 3-4 (A) 3.4 19:55:28 10° SW 20:01:22 79° NW 20:07:45 10° NE
NOSS 3-4 (C) 3.4 19:55:35 10° SW 20:01:29 80° NW 20:07:52 10° NE
SL-14 R/B 3.5 19:58:10 10° NNW 20:01:54 68° WNW 20:01:54 68° WNW
Resurs 01 Rocket 2.1 20:03:26 48° NNE 20:03:26 48° NNE 20:06:56 10° N
Meteor 2-19 Rocket 4.4 19:57:05 10° N 20:03:08 61° ENE 20:03:47 57° ESE
Cosmos 1833 Rocket 2.5 20:05:43 10° NNW 20:11:24 83° ENE 20:11:54 74° SE
Cosmos 2251 Rocket 3.9 20:09:02 10° NNW 20:13:44 51° NE 20:13:44 51° NE
CENTAUR R/B 4.1 20:08:27 10° NW 20:16:07 44° WSW 20:22:00 19° S
ARIANE 5 R/B 4.1 20:20:05 27° NNE 20:20:05 27° NNE 20:22:17 10° N
SPOT 3 Rocket 3.5 20:20:50 71° SW 20:21:11 74° WSW 20:26:22 10° NNW
ATLAS 2AS CENTAUR R/B 3.2 20:16:13 10° SW 20:24:10 71° NW 20:32:03 10° NE
Resurs 1-3 4.3 20:26:18 52° W 20:26:18 52° W 20:30:15 10° NNW
ATLAS 3B R/B 2.6 20:21:52 10° NW 20:28:47 83° SW 20:29:50 67° SSE
Cosmos 1892 Rocket 4.4 20:24:58 10° NNW 20:28:35 47° WNW 20:28:35 47° WNW
Cosmos 1655 Rocket 3.9 20:31:36 10° N 20:37:50 86° NE 20:37:50 86° NE
Lacrosse 5 rocket 3.5 20:54:09 10° NW 20:56:20 26° NNW 20:56:20 26° NNW
Cosmos 2098 Rocket 4.3 20:55:43 10° NNW 21:01:45 60° WNW 21:01:45 60° WNW
Cosmos 2082 Rocket 2.9 20:58:54 10° NNW 21:03:08 49° NW 21:03:08 49° NW
Terra 4.2 21:21:45 17° N 21:21:45 17° N 21:22:56 10° N
Cosmos 2278 Rocket 3.8 21:33:01 27° W 21:34:32 31° NW 21:39:32 10° N
Resurs 01 Rocket 4.5 21:41:00 13° WNW 21:41:00 13° WNW 21:42:08 10° NW
